Location: Unspecified
(0.0000°N, 0.0000°E)
Time: 01:12:13
(UTC+00:00)

Tiros 1 despin weight - Visible Passes

Search period start: 23 May 2015 00:00
Search period end: 02 June 2015 00:00
Orbit: 598 x 647 km, 48.2° (Epoch: 22 May)

Date Brightness Start Highest point End Pass type
(mag) Time Alt. Az. Time Alt. Az. Time Alt. Az.
23 May ? 18:17:11 10° S 18:20:15 19° SE 18:23:25 10° E visible
23 May ? 19:57:54 10° WSW 20:01:49 29° NW 20:04:04 19° N visible
24 May ? 18:33:59 10° SSW 18:38:20 52° SE 18:42:37 10° NE visible
24 May ? 20:18:49 10° WNW 20:19:58 11° NW 20:20:50 10° NW visible
25 May ? 18:51:59 10° SW 18:56:18 50° NW 19:00:35 10° NNE visible
26 May ? 05:20:14 10° N 05:23:36 20° NE 05:27:08 10° E visible
26 May ? 19:11:17 10° W 19:14:22 18° NW 19:17:18 10° N visible
28 May ? 04:16:10 10° NNE 04:17:58 12° NE 04:20:03 10° ENE visible
29 May ? 04:31:58 10° NNW 04:36:06 33° NE 04:40:21 10° ESE visible
29 May ? 18:25:58 10° WNW 18:26:57 10° NW 18:27:40 10° NW visible
30 May ? 04:49:28 10° NW 04:54:06 87° SW 04:58:49 10° SE visible
31 May ? 03:28:33 16° NNE 03:30:31 20° NE 03:34:02 10° E visible
31 May ? 05:07:59 10° WNW 05:12:07 31° SW 05:16:14 10° SSE visible
01 Jun ? 03:50:03 38° ESE 03:50:03 38° ESE 03:53:09 10° SE visible
01 Jun ? 05:28:32 10° WSW 05:30:17 12° SW 05:31:47 10° SSW visible
